This is the latest recevied weather packets stored in our database for station/object SV9TNF-56. If no packets are shown the sender has not sent any weather packets the latest 10 day(s).
| Time | Temp. | Humidity | Pressure | Rain* | Wind** | Luminosity | Snow |
|---|---|---|---|---|---|---|---|
| 1787833592 | 28.33° C | 50% | 1018 hPa | 0 mm | 19.67 m/s, 242° | - | - |
| 1787833292 | 28.33° C | 55% | 1018.3 hPa | 0 mm | 8.94 m/s, 150° | - | - |
| 1787832992 | 28.33° C | 54% | 1018 hPa | 0 mm | 13.86 m/s, 246° | - | - |
| 1787832692 | 28.89° C | 52% | 1018.3 hPa | 0 mm | 12.96 m/s, 224° | - | - |
| 1787832392 | 28.89° C | 50% | 1018.6 hPa | 0 mm | 16.09 m/s, 188° | - | - |
| 1787832092 | 28.89° C | 53% | 1018.6 hPa | 0 mm | 12.96 m/s, 125° | - | - |
| 1787831792 | 28.33° C | 52% | 1018.6 hPa | 0 mm | 7.15 m/s, 228° | - | - |
| 1787831491 | 28.89° C | 51% | 1018.3 hPa | 0 mm | 23.69 m/s, 234° | - | - |
| 1787831191 | 28.89° C | 53% | 1018.6 hPa | 0 mm | 12.52 m/s, 108° | - | - |
| 1787830892 | 28.89° C | 53% | 1018.6 hPa | 0 mm | 22.35 m/s, 259° | - | - |
| 1787830591 | 28.89° C | 52% | 1018.6 hPa | 0 mm | 9.83 m/s, 266° | - | - |
| 1787830291 | 29.44° C | 51% | 1018.6 hPa | 0 mm | 13.86 m/s, 162° | - | - |
| 1787829991 | 28.89° C | 52% | 1018.6 hPa | 0 mm | 24.14 m/s, 274° | - | - |
| 1787829691 | 28.33° C | 53% | 1019 hPa | 0 mm | 24.59 m/s, 252° | - | - |
| 1787829391 | 28.89° C | 51% | 1019 hPa | 0 mm | 26.38 m/s, 322° | - | - |
| 1787829091 | 28.33° C | 54% | 1019 hPa | 0 mm | 17.88 m/s, 257° | - | - |
| 1787828791 | 28.33° C | 53% | 1019 hPa | 0 mm | 22.8 m/s, 288° | - | - |
| 1787828490 | 28.33° C | 51% | 1019.3 hPa | 0 mm | 31.29 m/s, 257° | - | - |
| 1787828191 | 28.33° C | 51% | 1019 hPa | 0 mm | 17.88 m/s, 316° | - | - |
| 1787827890 | 28.33° C | 53% | 1019.3 hPa | 0 mm | 11.18 m/s, 226° | - | - |
| 1787827590 | 28.33° C | 51% | 1019 hPa | 0 mm | 7.15 m/s, 174° | - | - |
| 1787827290 | 28.89° C | 49% | 1019 hPa | 0 mm | 10.28 m/s, 10° | - | - |
| 1787826990 | 28.33° C | 51% | 1019.3 hPa | 0 mm | 4.92 m/s, 273° | - | - |
| 1787826690 | 28.33° C | 52% | 1019.3 hPa | 0 mm | 7.15 m/s, 215° | - | - |
| 1787826390 | 28.33° C | 52% | 1019.3 hPa | 0 mm | 8.05 m/s, 200° | - | - |
* Rain latest hour (hover to see other rain measurements)
** Current wind speed in m/s (hover to see current wind gust speed)